Terminal Aerodrome Forecast
Issued by NWS Boston, MA

Home | Current Version | Previous Version | Text Only | Print | Product List | Glossary On
Versions: 1 2 3 4 5 6 7 8 9 10 11 12 13 14 15 16 17 18 19 20 21 22 23 24 25 26 27 28 29 30 31 32 33 34 35 36 37 38 39 40 41 42
000
FTUS41 KBOX 242339
TAFPVD
TAF
KPVD 242339Z 2500/2524 15007KT P6SM FEW080 SCT200
     FM250200 19006KT P6SM BKN100 WS020/21035KT
     FM250400 19006KT 4SM BR BKN008 WS020/21035KT
     FM250700 20005KT 1/2SM FG BKN010
     FM251300 17006KT P6SM SCT015 BKN150
     FM251600 16009KT P6SM VCSH BKN015=

USA.gov is the U.S. government's official web portal to all federal, state and local government web resources and services.